(°C)
18°
19°
19°
20°
20°
21°
21°
(°C)
21°
21°
21°
22°
22°
23°
23°
ENE
NE
NE
NNE
N
N
NNW
(km/h)
1-7
1-9
2-8
2-8
2-7
2-8
3-8
(mm)
0
0
1.4
0
0
1.2
1.3
(%)
48
47
74
63
63
85
85

Elevazione del sole

/ 32.6°
sun-icon
UV 4
05:25
21:17
Luna calante (313°)
00:51
18:48

METAR per 55.27°N 86.11°E (UNEE)

Ora Condizioni Temperatura/
Punto di rugiada
Vento Visibilità Tempo Nuvole Pressione Cambiamento Grezzo
VFR 18°C / 16°C 130º 2kt >10km - Few Clouds 300ft 1007 No Significant change UNEE 040200Z 13001MPS 9999 FEW003 SCT040CB 18/16 Q1007 R23/CLRD60 NOSIG RMK QFE733
VFR 18°C / 15°C 110º 4kt >10km - Few Clouds 300ft 1007 No Significant change UNEE 040130Z 11002MPS 9999 FEW003 SCT040CB 18/15 Q1007 R23/CLRD60 NOSIG RMK QFE732
VFR 17°C / 16°C 120º 2kt >10km - Few Clouds 300ft 1007 No Significant change UNEE 040100Z 12001MPS 9999 FEW003 SCT040CB 17/16 Q1007 R05/CLRD60 NOSIG RMK QFE733
VFR 16°C / 15°C 130º 6kt 9000m - Few Clouds 300ft 1007 No Significant change UNEE 040030Z 13003MPS 9000 FEW003 SCT040CB 16/15 Q1007 R05/CLRD60 NOSIG RMK QFE733
LIFR 15°C / 15°C 140º 4kt 1600m. Runway 23: Visual range is 250m. Fog Vertical Visibility of 0ft. 1007 No Significant change UNEE 040000Z 14002MPS 1600 0200NE R23/0250N FG SCT000 15/15 Q1007 R23/CLRD60 NOSIG RMK QBB020 QFE733
LIFR 14°C / 14°C 130º 4kt 140m. Runway 23: Visual range is 200m. Fog Vertical Visibility of 0ft. 1007 No Significant change UNEE 032330Z 13002MPS 0150 0100SE R23/0200N FG VV001 14/14 Q1007 R23/CLRD60 NOSIG RMK QBB030 QFE733
LIFR 14°C / 14°C 100º 4kt 140m. Runway 23: Visual range is 150m. Fog Vertical Visibility of 0ft. 1007 No Significant change UNEE 032300Z 10002MPS 0150 0100NE R23/0150N FG SCT001 14/14 Q1007 R23/CLRD60 NOSIG RMK QBB030 QFE732
IFR 14°C / 14°C 110º 4kt 2300m. Runway 23: Visual range is 450m and decreasing. Fog Vertical Visibility of 0ft. 1007 No Significant change UNEE 032230Z 11002MPS 2300 0350NE R23/0450D FG NSC 14/14 Q1007 R23/CLRD60 NOSIG RMK QFE732
MVFR 15°C / 15°C 140º 4kt 6000m - Clear 1007 No Significant change UNEE 032200Z 14002MPS 6000 NSC 15/15 Q1007 R23/CLRD60 NOSIG RMK QFE732
MVFR 15°C / 15°C 140º 4kt 8000m - Clear 1007 No Significant change UNEE 032130Z 14002MPS 8000 NSC 15/15 Q1007 R23/CLRD60 NOSIG RMK QFE732
VFR 15°C / 15°C 140º 4kt >10km - Clouds and Visibility OK 1007 No Significant change UNEE 032100Z 14002MPS CAVOK 15/15 Q1007 R23/CLRD60 NOSIG RMK QFE732
VFR 16°C / 15°C 150º 4kt >10km - Clouds and Visibility OK 1007 No Significant change UNEE 032030Z 15002MPS CAVOK 16/15 Q1007 R23/CLRD60 NOSIG RMK QFE733
VFR 16°C / 16°C 150º 4kt >10km - Clouds and Visibility OK 1007 No Significant change UNEE 032000Z 15002MPS CAVOK 16/16 Q1007 R23/CLRD60 NOSIG RMK QFE733
VFR 17°C / 16°C 160º 4kt >10km - Clouds and Visibility OK 1007 No Significant change UNEE 031930Z 16002MPS CAVOK 17/16 Q1007 R23/CLRD60 NOSIG RMK QFE733
VFR 17°C / 16°C 140º 4kt >10km - Few Clouds 4000ft 1007 No Significant change UNEE 031900Z 14002MPS 9999 FEW040 17/16 Q1007 R23/CLRD60 NOSIG RMK QFE733
VFR 17°C / 16°C variable 0kt >10km - Few Clouds 4000ft 1008 No Significant change UNEE 031830Z 00000MPS 9999 FEW040 17/16 Q1008 R23/CLRD60 NOSIG RMK QFE733
VFR 17°C / 16°C variable 0kt >10km - Few Clouds 4000ft 1008 No Significant change UNEE 031800Z 00000MPS 9999 FEW040 17/16 Q1008 R23/CLRD60 NOSIG RMK QFE733
VFR 18°C / 16°C 90º 2kt >10km - Few Clouds 3300ft 1008 No Significant change UNEE 031730Z 09001MPS 9999 FEW033CB 18/16 Q1008 R23/CLRD60 NOSIG RMK QFE733
VFR 17°C / 16°C 50º 2kt >10km - Few Clouds 3300ft 1008 No Significant change UNEE 031700Z 05001MPS 9999 FEW033CB 17/16 Q1008 R23/CLRD60 NOSIG RMK QFE733
VFR 18°C / 16°C 260º variable 210º to 280º 4kt >10km - Few Clouds 3300ft 1008 No Significant change UNEE 031630Z 26002MPS 210V280 9999 FEW033CB 18/16 Q1008 R23/CLRD60 NOSIG RMK QFE733
VFR 18°C / 16°C 150º 4kt >10km - Few Clouds 3300ft 1008 No Significant change UNEE 031600Z 15002MPS 9999 FEW033CB 18/16 Q1008 R23/CLRD60 NOSIG RMK QFE733
VFR 19°C / 16°C 190º 4kt >10km - Few Clouds 3300ft 1008 No Significant change UNEE 031530Z 19002MPS 9999 FEW033CB 19/16 Q1008 R23/CLRD60 NOSIG RMK QFE733
VFR 19°C / 16°C 210º 6kt >10km - Few Clouds 3300ft 1008 No Significant change UNEE 031500Z 21003MPS 9999 FEW033CB 19/16 Q1008 R23/CLRD60 NOSIG RMK QFE733
VFR 20°C / 16°C 220º 6kt >10km - Clouds and Visibility OK 1007 No Significant change UNEE 031430Z 22003MPS CAVOK 20/16 Q1007 R23/CLRD60 NOSIG RMK QFE733

VFR

18°C / 16°C

[Più]
Vento 130º 2kt
Visibilità >10km
Tempo -
Nuvole Few Clouds 300ft
Pressione 1007
Cambiamento No Significant change
Grezzo UNEE 040200Z 13001MPS 9999 FEW003 SCT040CB 18/16 Q1007 R23/CLRD60 NOSIG RMK QFE733

VFR

18°C / 15°C

[Più]
Vento 110º 4kt
Visibilità >10km
Tempo -
Nuvole Few Clouds 300ft
Pressione 1007
Cambiamento No Significant change
Grezzo UNEE 040130Z 11002MPS 9999 FEW003 SCT040CB 18/15 Q1007 R23/CLRD60 NOSIG RMK QFE732

VFR

17°C / 16°C

[Più]
Vento 120º 2kt
Visibilità >10km
Tempo -
Nuvole Few Clouds 300ft
Pressione 1007
Cambiamento No Significant change
Grezzo UNEE 040100Z 12001MPS 9999 FEW003 SCT040CB 17/16 Q1007 R05/CLRD60 NOSIG RMK QFE733

VFR

16°C / 15°C

[Più]
Vento 130º 6kt
Visibilità 9000m
Tempo -
Nuvole Few Clouds 300ft
Pressione 1007
Cambiamento No Significant change
Grezzo UNEE 040030Z 13003MPS 9000 FEW003 SCT040CB 16/15 Q1007 R05/CLRD60 NOSIG RMK QFE733

LIFR

15°C / 15°C

[Più]
Vento 140º 4kt
Visibilità 1600m. Runway 23: Visual range is 250m.
Tempo Fog
Nuvole Vertical Visibility of 0ft.
Pressione 1007
Cambiamento No Significant change
Grezzo UNEE 040000Z 14002MPS 1600 0200NE R23/0250N FG SCT000 15/15 Q1007 R23/CLRD60 NOSIG RMK QBB020 QFE733

LIFR

14°C / 14°C

[Più]
Vento 130º 4kt
Visibilità 140m. Runway 23: Visual range is 200m.
Tempo Fog
Nuvole Vertical Visibility of 0ft.
Pressione 1007
Cambiamento No Significant change
Grezzo UNEE 032330Z 13002MPS 0150 0100SE R23/0200N FG VV001 14/14 Q1007 R23/CLRD60 NOSIG RMK QBB030 QFE733

LIFR

14°C / 14°C

[Più]
Vento 100º 4kt
Visibilità 140m. Runway 23: Visual range is 150m.
Tempo Fog
Nuvole Vertical Visibility of 0ft.
Pressione 1007
Cambiamento No Significant change
Grezzo UNEE 032300Z 10002MPS 0150 0100NE R23/0150N FG SCT001 14/14 Q1007 R23/CLRD60 NOSIG RMK QBB030 QFE732

IFR

14°C / 14°C

[Più]
Vento 110º 4kt
Visibilità 2300m. Runway 23: Visual range is 450m and decreasing.
Tempo Fog
Nuvole Vertical Visibility of 0ft.
Pressione 1007
Cambiamento No Significant change
Grezzo UNEE 032230Z 11002MPS 2300 0350NE R23/0450D FG NSC 14/14 Q1007 R23/CLRD60 NOSIG RMK QFE732

MVFR

15°C / 15°C

[Più]
Vento 140º 4kt
Visibilità 6000m
Tempo -
Nuvole Clear
Pressione 1007
Cambiamento No Significant change
Grezzo UNEE 032200Z 14002MPS 6000 NSC 15/15 Q1007 R23/CLRD60 NOSIG RMK QFE732

MVFR

15°C / 15°C

[Più]
Vento 140º 4kt
Visibilità 8000m
Tempo -
Nuvole Clear
Pressione 1007
Cambiamento No Significant change
Grezzo UNEE 032130Z 14002MPS 8000 NSC 15/15 Q1007 R23/CLRD60 NOSIG RMK QFE732

VFR

15°C / 15°C

[Più]
Vento 140º 4kt
Visibilità >10km
Tempo -
Nuvole Clouds and Visibility OK
Pressione 1007
Cambiamento No Significant change
Grezzo UNEE 032100Z 14002MPS CAVOK 15/15 Q1007 R23/CLRD60 NOSIG RMK QFE732

VFR

16°C / 15°C

[Più]
Vento 150º 4kt
Visibilità >10km
Tempo -
Nuvole Clouds and Visibility OK
Pressione 1007
Cambiamento No Significant change
Grezzo UNEE 032030Z 15002MPS CAVOK 16/15 Q1007 R23/CLRD60 NOSIG RMK QFE733

VFR

16°C / 16°C

[Più]
Vento 150º 4kt
Visibilità >10km
Tempo -
Nuvole Clouds and Visibility OK
Pressione 1007
Cambiamento No Significant change
Grezzo UNEE 032000Z 15002MPS CAVOK 16/16 Q1007 R23/CLRD60 NOSIG RMK QFE733

VFR

17°C / 16°C

[Più]
Vento 160º 4kt
Visibilità >10km
Tempo -
Nuvole Clouds and Visibility OK
Pressione 1007
Cambiamento No Significant change
Grezzo UNEE 031930Z 16002MPS CAVOK 17/16 Q1007 R23/CLRD60 NOSIG RMK QFE733

VFR

17°C / 16°C

[Più]
Vento 140º 4kt
Visibilità >10km
Tempo -
Nuvole Few Clouds 4000ft
Pressione 1007
Cambiamento No Significant change
Grezzo UNEE 031900Z 14002MPS 9999 FEW040 17/16 Q1007 R23/CLRD60 NOSIG RMK QFE733

VFR

17°C / 16°C

[Più]
Vento variable 0kt
Visibilità >10km
Tempo -
Nuvole Few Clouds 4000ft
Pressione 1008
Cambiamento No Significant change
Grezzo UNEE 031830Z 00000MPS 9999 FEW040 17/16 Q1008 R23/CLRD60 NOSIG RMK QFE733

VFR

17°C / 16°C

[Più]
Vento variable 0kt
Visibilità >10km
Tempo -
Nuvole Few Clouds 4000ft
Pressione 1008
Cambiamento No Significant change
Grezzo UNEE 031800Z 00000MPS 9999 FEW040 17/16 Q1008 R23/CLRD60 NOSIG RMK QFE733

VFR

18°C / 16°C

[Più]
Vento 90º 2kt
Visibilità >10km
Tempo -
Nuvole Few Clouds 3300ft
Pressione 1008
Cambiamento No Significant change
Grezzo UNEE 031730Z 09001MPS 9999 FEW033CB 18/16 Q1008 R23/CLRD60 NOSIG RMK QFE733

VFR

17°C / 16°C

[Più]
Vento 50º 2kt
Visibilità >10km
Tempo -
Nuvole Few Clouds 3300ft
Pressione 1008
Cambiamento No Significant change
Grezzo UNEE 031700Z 05001MPS 9999 FEW033CB 17/16 Q1008 R23/CLRD60 NOSIG RMK QFE733

VFR

18°C / 16°C

[Più]
Vento 260º variable 210º to 280º 4kt
Visibilità >10km
Tempo -
Nuvole Few Clouds 3300ft
Pressione 1008
Cambiamento No Significant change
Grezzo UNEE 031630Z 26002MPS 210V280 9999 FEW033CB 18/16 Q1008 R23/CLRD60 NOSIG RMK QFE733

VFR

18°C / 16°C

[Più]
Vento 150º 4kt
Visibilità >10km
Tempo -
Nuvole Few Clouds 3300ft
Pressione 1008
Cambiamento No Significant change
Grezzo UNEE 031600Z 15002MPS 9999 FEW033CB 18/16 Q1008 R23/CLRD60 NOSIG RMK QFE733

VFR

19°C / 16°C

[Più]
Vento 190º 4kt
Visibilità >10km
Tempo -
Nuvole Few Clouds 3300ft
Pressione 1008
Cambiamento No Significant change
Grezzo UNEE 031530Z 19002MPS 9999 FEW033CB 19/16 Q1008 R23/CLRD60 NOSIG RMK QFE733

VFR

19°C / 16°C

[Più]
Vento 210º 6kt
Visibilità >10km
Tempo -
Nuvole Few Clouds 3300ft
Pressione 1008
Cambiamento No Significant change
Grezzo UNEE 031500Z 21003MPS 9999 FEW033CB 19/16 Q1008 R23/CLRD60 NOSIG RMK QFE733

VFR

20°C / 16°C

[Più]
Vento 220º 6kt
Visibilità >10km
Tempo -
Nuvole Clouds and Visibility OK
Pressione 1007
Cambiamento No Significant change
Grezzo UNEE 031430Z 22003MPS CAVOK 20/16 Q1007 R23/CLRD60 NOSIG RMK QFE733

TAF per 55.27°N 86.11°E (UNEE)

From till


From till Wind 120º 6kt. Gust 16kt. Visibility 804.670m. Fog . Broken Clouds 200ft. Broken Clouds 1600ft.
Temporarly from till Visibility 144.841m. Light Thunderstorm Rain Fog . Broken Clouds 100ft. Broken Clouds 1600ft.
From till Wind 250º 6kt. Gust 16kt. Visibility 6000m. Light Showers Rain . Broken Clouds 1600ft.
Temporarly from till Wind 340º 10kt. Gust 27kt. Light Thunderstorm Rain . Scattered Clouds 200ft. Broken Clouds 1600ft.

Grezzo: TAF UNEE 032300Z 0400/0424 12003G08MPS 0800 FG BKN002 BKN016CB TEMPO 0400/0403 0150 -TSRA FG BKN001 BKN016CB FM040300 25003G08MPS 6000 -SHRA BKN016CB TEMPO 0403/0424 34005G14MPS -TSRA SCT002 BKN016CB

Tempo in atto per 55.27°N 86.11°E: immagine satellitare e pioggia

Il segnaposto è situato a 55.27°N 86.11°E. [Più]

L'immagine satellitare in tempo reale combina la luce visibile durante il giorno con la radiazione infrarossa durante la notte. Di notte l'immagine non è scura poiché i raggi infrarossi possono rilevare differenze di temperatura. Purtroppo, le nuvole basse e la nebbia sono difficili da distinguere dalla temperatura del suolo e possono pertanto essere quasi invisibili durante la notte. Le immagini satellitari Meteosat per l'Europa vengono aggiornate in tempo reale ogni 5 minuti. Le immagini GOES-16 / GOES-17 (Nord e Sud America) e Himawari (Asia) vengono aggiornate ogni 10 minuti.

Copyright 2021 EUMETSAT / meteoblue. / Copyright 2021 meteoblue

Radar e nowcasting per 55.27°N 86.11°E

Pioggerella
Lieve
Moderato
Forte
Molto forte
Grandine

Il segnaposto è situato a 55.27°N 86.11°E. Questa animazione mostra il radar delle precipitazioni per l'ultima ora, nonché una previsione 1h. Il radar può non individuare correttamente pioviggine o nevischio. L’intensità delle precipitazioni è associata a una scala di colori, dal blu chiaro fino al viola scuro.